Time,TemperatureF,DewpointF,PressureIn,WindDirection,WindDirectionDegrees,WindSpeedMPH,WindSpeedGustMPH,Humidity,HourlyPrecipIn,Conditions,Clouds,dailyrainin,SoftwareType,DateUTC
2013-01-22 00:00:00,51.0,42.0,-100.00,North,-999,-999.0,-999.0,70,-99.99,,,0.00,,2013-01-22 08:00:00,
2013-01-22 00:52:00,51.0,42.0,-100.00,North,-999,-999.0,-999.0,70,-99.99,,,0.00,,2013-01-22 08:52:00,
2013-01-22 01:00:00,52.0,42.0,-100.00,North,-999,-999.0,-999.0,68,0.00,,,0.00,,2013-01-22 09:00:00,
2013-01-22 01:52:00,52.0,42.0,-100.00,North,-999,-999.0,-999.0,68,0.00,,,0.00,,2013-01-22 09:52:00,
2013-01-22 02:00:00,52.0,41.0,-100.00,North,-999,-999.0,-999.0,68,0.00,,,0.00,,2013-01-22 10:00:00,
2013-01-22 02:52:00,52.0,41.0,-100.00,North,-999,-999.0,-999.0,68,0.00,,,0.00,,2013-01-22 10:52:00,
2013-01-22 03:00:00,50.0,42.0,-100.00,North,-999,-999.0,-999.0,73,-99.99,,,0.00,,2013-01-22 11:00:00,
2013-01-22 03:53:00,50.0,42.0,-100.00,North,-999,-999.0,-999.0,73,-99.99,,,0.00,,2013-01-22 11:53:00,
2013-01-22 04:00:00,50.0,42.0,-100.00,North,-999,-999.0,-999.0,75,0.00,,,0.00,,2013-01-22 12:00:00,
2013-01-22 04:53:00,50.0,42.0,-100.00,North,-999,-999.0,-999.0,75,0.00,,,0.00,,2013-01-22 12:53:00,
2013-01-22 05:53:00,52.0,37.0,-100.00,North,-999,-999.0,-999.0,56,0.00,,,0.00,,2013-01-22 13:53:00,
2013-01-22 07:00:00,62.0,20.0,-100.00,North,-999,-999.0,-999.0,20,-99.99,,,0.00,,2013-01-22 15:00:00,
2013-01-22 07:53:00,62.0,20.0,-100.00,North,-999,-999.0,-999.0,20,-99.99,,,0.00,,2013-01-22 15:53:00,
2013-01-22 08:00:00,58.0,35.0,-100.00,North,-999,-999.0,-999.0,42,-99.99,,,-99.99,,2013-01-22 16:00:00,
2013-01-22 08:54:00,58.0,35.0,-100.00,North,-999,-999.0,-999.0,42,-99.99,,,-99.99,,2013-01-22 16:54:00,
2013-01-22 09:00:00,55.0,41.0,-100.00,North,-999,-999.0,-999.0,58,-99.99,,,0.00,,2013-01-22 17:00:00,
2013-01-22 09:53:00,55.0,41.0,-100.00,North,-999,-999.0,-999.0,58,-99.99,,,0.00,,2013-01-22 17:53:00,
2013-01-22 10:00:00,58.0,43.0,-100.00,North,-999,-999.0,-999.0,57,0.00,,,0.00,,2013-01-22 18:00:00,
2013-01-22 10:54:00,58.0,43.0,-100.00,North,-999,-999.0,-999.0,57,0.00,,,0.00,,2013-01-22 18:54:00,
2013-01-22 11:00:00,62.0,42.0,-100.00,North,-999,-999.0,-999.0,47,0.00,,,0.00,,2013-01-22 19:00:00,
2013-01-22 11:54:00,62.0,42.0,-100.00,North,-999,-999.0,-999.0,47,0.00,,,0.00,,2013-01-22 19:54:00,
2013-01-22 12:00:00,69.0,39.0,-100.00,North,-999,-999.0,-999.0,33,0.00,,,0.00,,2013-01-22 20:00:00,
2013-01-22 12:53:00,69.0,39.0,-100.00,North,-999,-999.0,-999.0,33,0.00,,,0.00,,2013-01-22 20:53:00,
2013-01-22 13:00:00,75.0,33.0,-100.00,North,-999,-999.0,-999.0,22,0.00,,,0.00,,2013-01-22 21:00:00,
2013-01-22 13:53:00,75.0,33.0,-100.00,North,-999,-999.0,-999.0,22,0.00,,,0.00,,2013-01-22 21:53:00,
2013-01-22 14:00:00,75.0,31.0,-100.00,North,-999,-999.0,-999.0,20,0.00,,,0.00,,2013-01-22 22:00:00,
2013-01-22 14:53:00,75.0,31.0,-100.00,North,-999,-999.0,-999.0,20,0.00,,,0.00,,2013-01-22 22:53:00,
2013-01-22 15:00:00,74.0,29.0,-100.00,North,-999,-999.0,-999.0,19,0.00,,,0.00,,2013-01-22 23:00:00,
2013-01-22 15:53:00,74.0,29.0,-100.00,North,-999,-999.0,-999.0,19,0.00,,,0.00,,2013-01-22 23:53:00,
2013-01-22 16:00:00,74.0,31.0,-100.00,North,-999,-999.0,-999.0,20,0.00,,,0.00,,2013-01-23 00:00:00,
2013-01-22 16:52:00,74.0,31.0,-100.00,North,-999,-999.0,-999.0,20,0.00,,,0.00,,2013-01-23 00:52:00,
2013-01-22 17:00:00,67.0,38.0,-100.00,North,-999,-999.0,-999.0,34,0.00,,,0.00,,2013-01-23 01:00:00,
2013-01-22 17:53:00,67.0,38.0,-100.00,North,-999,-999.0,-999.0,34,0.00,,,0.00,,2013-01-23 01:53:00,
2013-01-22 18:00:00,65.0,37.0,-100.00,North,-999,-999.0,-999.0,36,0.00,,,0.00,,2013-01-23 02:00:00,
2013-01-22 18:53:00,65.0,37.0,-100.00,North,-999,-999.0,-999.0,36,0.00,,,0.00,,2013-01-23 02:53:00,
2013-01-22 19:00:00,63.0,35.0,-100.00,North,-999,-999.0,-999.0,34,0.00,,,0.00,,2013-01-23 03:00:00,
2013-01-22 19:53:00,63.0,35.0,-100.00,North,-999,-999.0,-999.0,34,0.00,,,0.00,,2013-01-23 03:53:00,
2013-01-22 20:00:00,64.0,33.0,-100.00,North,-999,-999.0,-999.0,32,0.00,,,0.00,,2013-01-23 04:00:00,
2013-01-22 21:00:00,57.0,37.0,-100.00,North,-999,-999.0,-999.0,47,-99.99,,,0.00,,2013-01-23 05:00:00,
2013-01-22 21:53:00,57.0,37.0,-100.00,North,-999,-999.0,-999.0,47,-99.99,,,0.00,,2013-01-23 05:53:00,
2013-01-22 22:00:00,57.0,33.0,-100.00,North,-999,-999.0,-999.0,40,0.00,,,0.00,,2013-01-23 06:00:00,
2013-01-22 22:53:00,57.0,33.0,-100.00,North,-999,-999.0,-999.0,40,0.00,,,0.00,,2013-01-23 06:53:00,
2013-01-22 23:00:00,56.0,35.0,-100.00,North,-999,-999.0,-999.0,46,0.00,,,0.00,,2013-01-23 07:00:00,
2013-01-22 23:53:00,56.0,35.0,-100.00,North,-999,-999.0,-999.0,46,0.00,,,0.00,,2013-01-23 07:53:00,